This demonstration page uses our WeatherBlox Daily Observations layout. Learn more.

Left ArrowRight Arrow

36.19886, -115.1175

Hourly Observations for August 27, 2015

Temp ( °F °C ) Dew Point ( °F °C ) Humidity (%) Winds ( mph kmh ) Pressure ( in mb ) Visibility ( mi km ) Precip ( " mm )
12:53 am 00:53 Clear 86 30 55 12.8 35 35 E 15 24 30.03 1017 10 16 0.00 0.00
1:53 am 01:53 Clear 84 28.9 55 12.8 37 37 E 9 15 30.02 1017 10 16 0.00 0.00
2:53 am 02:53 Clear 84 28.9 56 13.3 38 38 S 5 7 30.02 1017 10 16 0.00 0.00
3:53 am 03:53 Clear 83 28.3 56 13.3 40 40 WSW 5 7 30.03 1017 10 16 0.00 0.00
4:53 am 04:53 Clear 81 27.2 57 13.9 44 44 S 7 11 30.03 1017 10 16 0.00 0.00
5:53 am 05:53 Clear 81 27.2 57 13.9 44 44 SW 3 6 30.03 1017 10 16 0.00 0.00
6:53 am 06:53 Sunny 82 27.8 56 13.3 41 41 Calm 30.03 1017 10 16 0.00 0.00
7:53 am 07:53 Sunny 84 28.9 57 13.9 40 40 E 5 7 30.06 1018 10 16 0.00 0.00
8:53 am 08:53 Sunny 86 30 56 13.3 36 36 SE 12 19 30.07 1018 10 16 0.00 0.00
9:53 am 09:53 Sunny 88 31.1 55 12.8 33 33 SSE 7 11 30.07 1018 10 16 0.00 0.00
10:53 am 10:53 Sunny 91 32.8 55 12.8 30 30 ESE 10 17 30.06 1018 10 16 0.00 0.00
11:53 am 11:53 Sunny 93 33.9 55 12.8 28 28 SE 7 11 30.04 1017 10 16 0.00 0.00
12:53 pm 12:53 Sunny 94 34.4 55 12.8 27 27 SW 3 6 30.01 1016 10 16 0.00 0.00
1:53 pm 13:53 Sunny 97 36.1 55 12.8 24 24 WNW 5 7 29.98 1015 10 16 0.00 0.00
2:53 pm 14:53 Sunny 96 35.6 54 12.2 24 24 undefined N/A 29.95 1014 10 16 0.00 0.00
3:53 pm 15:53 Sunny 96 35.6 54 12.2 24 24 N 5 7 29.93 1014 10 16 0.00 0.00
4:53 pm 16:53 Sunny 99 37.2 50 10 19 19 Calm 29.91 1013 10 16 0.00 0.00
5:53 pm 17:53 Sunny 99 37.2 46 7.8 16 16 NE 7 11 29.89 1012 10 16 0.00 0.00
6:53 pm 18:53 Sunny 97 36.1 48 8.9 19 19 ESE 5 7 29.89 1012 10 16 0.00 0.00
7:53 pm 19:53 Clear 96 35.6 48 8.9 19 19 Calm 29.90 1012 10 16 0.00 0.00
8:53 pm 20:53 Clear 93 33.9 49 9.4 22 22 NW 3 6 29.92 1013 10 16 0.00 0.00
9:53 pm 21:53 Clear 90 32.2 49 9.4 24 24 N 5 7 29.93 1014 10 16 0.00 0.00
10:53 pm 22:53 Clear 89 31.7 49 9.4 25 25 WNW 7 11 29.92 1013 10 16 0.00 0.00
11:53 pm 23:53 Clear 88 31.1 51 10.6 28 28 W 7 11 29.91 1013 10 16 0.00 0.00

Powered by AerisWeather